Home > Weather > Austin > Past weeks

Flag for USA Past Weather in Austin, Texas, USA — Yesterday and Last 2 Weeks

Now
78 °F

Overcast.


Feels Like: 81 °F
Forecast: 73 / 88 °F
Wind: No wind

Location: Camp Mabry / Austin City

Current Time: Aug 26, 2016 at 12:18:30 AM

Latest Report: Aug 25, 2016 at 11:51 PM


Visibility: 10 mi

Pressure: 30.04 "Hg

Humidity: 87%

Dew Point: 74 °F

Location of AustinLocation

Past Weather in Austin — Graph

°F

Austin Temperature Yesterday

Maximum temperature yesterday: 94 °F (at 2:51 PM)
Minimum temperature yesterday: 74 °F (at 6:51 AM)
Average temperature yesterday: 82 °F

High & Low Weather Summary for the Past Weeks

 TemperatureHumidityPressure
High103 °F (Aug 12, 4:51 PM)100% (Aug 14, 3:51 AM)30.15 "Hg (Aug 14, 3:51 AM)
Low71 °F (Aug 14, 9:51 PM)35% (Aug 12, 4:51 PM)29.68 "Hg (Aug 12, 5:51 PM)
Average80 °F82%29.96 "Hg
* Reported Aug 10 10:51 PM — Aug 25 10:51 PM, Austin, Weather by CustomWeather, © 2016

Note: Actual official high and low records may vary slightly from our data, if they occured in-between our weather recording intervals... More about our weather records

Advertising

Austin Weather History for the Previous 24 Hours

Scroll right to see more
 ConditionsComfort  
Time TempWeatherWind HumidityBarometerVisibility
10:51 PM
Thu, Aug 25
78 °FPassing clouds.3 mph90%30.02 "Hg10 mi
9:51 PM82 °FPassing clouds.6 mph72%29.99 "Hg10 mi
8:51 PM82 °FSunny.6 mph72%29.97 "Hg10 mi
7:51 PM86 °FSunny.3 mph63%29.95 "Hg10 mi
6:51 PM87 °FSunny.5 mph59%29.94 "Hg10 mi
5:51 PM88 °FSunny.No wind61%29.95 "Hg10 mi
4:51 PM89 °FSunny.No wind57%29.96 "Hg10 mi
3:51 PM91 °FPassing clouds.No wind50%29.99 "Hg10 mi
2:51 PM94 °FScattered clouds.5 mph51%30.00 "Hg10 mi
1:51 PM91 °FScattered clouds.5 mph56%30.03 "Hg10 mi
12:51 PM90 °FSunny.6 mph56%30.05 "Hg10 mi
11:51 AM86 °FSunny.No wind65%30.07 "Hg10 mi
10:51 AM83 °FPassing clouds.3 mph72%30.07 "Hg10 mi
9:51 AM83 °FPartly sunny.5 mph74%30.08 "Hg10 mi
9:00 AM80 °FPartly sunny.N/A81%30.10 "Hg10 mi
8:51 AM79 °FScattered clouds.No wind84%30.06 "Hg10 mi
7:51 AM76 °FPassing clouds.3 mph94%30.04 "Hg8 mi
6:51 AM74 °FPassing clouds.No wind97%30.02 "Hg7 mi
5:51 AM75 °FClear.No wind94%30.02 "Hg8 mi
4:57 AM75 °FPassing clouds.No wind96%30.08 "Hg9 mi
4:03 AM76 °FPassing clouds.3 mph94%30.07 "Hg9 mi
3:51 AM76 °FPassing clouds.5 mph94%30.03 "Hg9 mi
3:00 AM77 °FPassing clouds.No wind94%30.09 "Hg10 mi
2:51 AM77 °FPassing clouds.No wind90%30.04 "Hg10 mi
1:51 AM78 °FClear.5 mph90%30.05 "Hg10 mi
12:51 AM80 °FClear.6 mph81%30.06 "Hg10 mi
Weather by CustomWeather, © 2016

See weather overviewHow to use our weather pages